Find Starlink 30822

NORAD ID: 58193 Int'l Des: 2023-167 Owner: SPXS Country: US Constellation: starlink operational
LEOCIRCULAR

Live Position

Loading 3D Globe...

About Starlink 30822

Description loading...

Upcoming Passes

Passes for default location (London). Set your location on the main map for personalized predictions.

Altitude History

Loading altitude history...

Two-Line Element Set

1 58193U 23167U 26124.47536205 .00000556 00000-0 29735-4 0 9998
2 58193 42.9990 188.6145 0001704 285.1278 74.9385 15.27572910139513
Epoch: May 4, 2026 • Age: 18 hours

Current Status

Altitude 485.0 km
Velocity 7.63 km/s
Sub-Earth Point 34.07°N, 66.08°W
Launch Date Oct 30, 2023
Age 2.5 years
Type internet

Technical Details

Classification Payload
Mass 730.00 kg
Dry Mass 700.00 kg
Total Mass 730.00 kg
Length 0.30 m
Diameter 4.10 m
Span 29.00 m
Shape Box + pan
Manufacturer SPXS
Bus Type Starlink V2M
Phase Status In Orbit
Owner/State SPXS/US

Most Searched